Shannon, Ireland

12:13 AM IST on July 26, 2016 (GMT +0100)
Shannon

Weather History for EINN - February, 2011

Change the Weather History Date:

Tuesday, February 1, 2011

  Actual Average Record
Temperature  
Mean Temperature 46 °F -  
Max Temperature 52 °F 47 °F 54 °F (2016)
Min Temperature 41 °F 37 °F 32 °F (1998)
Degree Days  
Heating Degree Days 18    
Moisture  
Dew Point 44 °F    
Average Humidity 92    
Maximum Humidity 100    
Minimum Humidity 76    
Precipitation  
Precipitation 0.00 in 0.09 in - ()
Sea Level Pressure  
Sea Level Pressure 30.18 in    
Wind  
Wind Speed 9 mph ()    
Max Wind Speed 20 mph    
Max Gust Speed -    
Visibility 6.0 miles    
Events Fog , Rain    
Averages and records for this station are not official NWS values.
T = Trace of Precipitation, MM = Missing Value Source: Averaged Metar Reports

Daily Weather History Graph

Daily Weather History Graph

Search for Another Location

Airport or City:

Trip Planner

Search our weather history database for the weather conditions in past years. The results will help you decide how hot, cold, wet, or windy it might be!

Date:

Astronomy

Feb. 01, 2011 Rise Set
Actual Time 8:18 AM GMT 5:20 PM GMT
Civil Twilight 7:41 AM GMT 5:57 PM GMT
Nautical Twilight 6:59 AM GMT 6:39 PM GMT
Astronomical Twilight 6:19 AM GMT 7:19 PM GMT
Moon 7:18 AM GMT (2/1) 3:53 PM GMT (2/1)
Length of Visible Light 10h 16m
Length of Day
9h 01m
Waning Crescent, 2% of the Moon is Illuminated
Feb 1
Waning Crescent
Feb 3
New
Feb 11
First Quarter
Feb 18
Full
Feb 24
Last Quarter

Hourly Weather History & Observations

Time (GMT) Temp. Windchill Dew Point Humidity Pressure Visibility Wind Dir Wind Speed Gust Speed Precip Events Conditions
12:00 AM 49 °F - 48 °F 96% 30.09 in 4 mi SW 13.4 mph - - Rain Light Drizzle
12:00 AM 48.2 °F - 48.2 °F 100% 30.09 in 3.7 mi SW 12.7 mph - N/A   Light Drizzle
12:30 AM 48.2 °F - 48.2 °F 100% 30.09 in 6.2 mi SW 11.5 mph - N/A   Light Drizzle
1:00 AM 48.2 °F - 48.2 °F 100% 30.09 in 6.2 mi SW 12.7 mph - N/A   Mostly Cloudy
1:30 AM 48.2 °F - 48.2 °F 100% 30.09 in 5.6 mi WSW 9.2 mph - N/A   Light Drizzle
2:00 AM 50.0 °F - 48.2 °F 94% 30.09 in 6.2 mi WSW 10.4 mph - N/A   Light Drizzle
2:30 AM 48.2 °F - 48.2 °F 100% 30.12 in 6.2 mi SW 8.1 mph - N/A   Light Drizzle
3:00 AM 48.2 °F - 46.4 °F 93% 30.12 in 6.2 mi WSW 8.1 mph - N/A   Mostly Cloudy
3:30 AM 46.4 °F 41.9 °F 46.4 °F 100% 30.12 in 6.2 mi WSW 9.2 mph - N/A   Mostly Cloudy
4:00 AM 44.6 °F 39.7 °F 44.6 °F 100% 30.12 in 6.2 mi SW 9.2 mph - N/A   Mostly Cloudy
4:30 AM 44.6 °F 39.7 °F 44.6 °F 100% 30.12 in 6.2 mi SW 9.2 mph - N/A   Mostly Cloudy
5:00 AM 44.6 °F 41.4 °F 44.6 °F 100% 30.12 in 6.2 mi SW 5.8 mph - N/A   Mostly Cloudy
5:30 AM 42.8 °F 40.1 °F 42.8 °F 100% 30.12 in 6.2 mi SW 4.6 mph - N/A   Mostly Cloudy
6:00 AM 43 °F - 42 °F 96% 30.16 in 7 mi SW 4.5 mph - -   Mist
6:00 AM 42.8 °F 40.1 °F 42.8 °F 100% 30.15 in 6.2 mi SW 4.6 mph - N/A   Mostly Cloudy
6:30 AM 42.8 °F 39.3 °F 42.8 °F 100% 30.15 in 6.2 mi SW 5.8 mph - N/A   Mostly Cloudy
7:00 AM 42.8 °F 40.1 °F 42.8 °F 100% 30.15 in 6.2 mi SSW 4.6 mph - N/A   Mostly Cloudy
7:30 AM 42.8 °F 38.6 °F 42.8 °F 100% 30.15 in 6.2 mi SW 6.9 mph - N/A   Partly Cloudy
8:00 AM 41.0 °F 39.0 °F 41.0 °F 100% 30.18 in 6.2 mi SSW 3.5 mph - N/A   Partly Cloudy
8:30 AM 41.0 °F 38.0 °F 41.0 °F 100% 30.21 in 6.2 mi SSW 4.6 mph - N/A Fog Shallow Fog
9:00 AM 42.8 °F 39.3 °F 42.8 °F 100% 30.21 in 4.3 mi SSW 5.8 mph - N/A   Partly Cloudy
9:30 AM 42.8 °F 38.6 °F 42.8 °F 100% 30.21 in 4.3 mi SSW 6.9 mph - N/A   Partly Cloudy
10:00 AM 44.6 °F 39.2 °F 44.6 °F 100% 30.21 in 4.3 mi SSW 10.4 mph - N/A   Partly Cloudy
10:30 AM 46.4 °F 41.9 °F 44.6 °F 93% 30.21 in 5.0 mi SSW 9.2 mph - N/A   Partly Cloudy
11:00 AM 48.2 °F - 44.6 °F 87% 30.24 in 5.0 mi SW 12.7 mph - N/A   Partly Cloudy
11:30 AM 48.2 °F - 46.4 °F 93% 30.24 in 5.6 mi SW 11.5 mph - N/A   Partly Cloudy
12:00 PM 50 °F - 46 °F 81% 30.26 in 6 mi SW 15.7 mph - -   Mist
12:00 PM 50.0 °F - 46.4 °F 87% 30.24 in 6.2 mi SW 16.1 mph - N/A   Partly Cloudy
12:30 PM 51.8 °F - 46.4 °F 82% 30.24 in 6.2 mi SW 16.1 mph - N/A   Partly Cloudy
1:00 PM 51.8 °F - 46.4 °F 82% 30.24 in 6.2 mi WSW 19.6 mph - N/A   Scattered Clouds
1:30 PM 51.8 °F - 46.4 °F 82% 30.24 in 6.2 mi WSW 19.6 mph - N/A   Scattered Clouds
2:00 PM 51.8 °F - 44.6 °F 76% 30.21 in 6.2 mi WSW 17.3 mph - N/A   Scattered Clouds
2:30 PM 50.0 °F - 44.6 °F 82% 30.21 in 6.2 mi SW 11.5 mph - N/A   Scattered Clouds
3:00 PM 50.0 °F - 44.6 °F 82% 30.21 in 6.2 mi SW 13.8 mph - N/A   Scattered Clouds
3:30 PM 50.0 °F - 44.6 °F 82% 30.24 in 6.2 mi WSW 13.8 mph - N/A   Scattered Clouds
4:00 PM 50.0 °F - 44.6 °F 82% 30.24 in 6.2 mi WSW 15.0 mph - N/A   Mostly Cloudy
4:30 PM 50.0 °F - 44.6 °F 82% 30.24 in 6.2 mi SW 11.5 mph - N/A   Scattered Clouds
5:00 PM 48.2 °F - 44.6 °F 87% 30.24 in 6.2 mi SW 10.4 mph - N/A   Scattered Clouds
5:30 PM 48.2 °F - 42.8 °F 82% 30.24 in 6.2 mi SSW 6.9 mph - N/A   Scattered Clouds
6:00 PM 47 °F - 44 °F 84% 30.25 in 9 mi SSW 8.9 mph - -   Mist
6:00 PM 46.4 °F 42.4 °F 44.6 °F 93% 30.24 in 6.2 mi SSW 8.1 mph - N/A   Scattered Clouds
6:30 PM 46.4 °F 41.9 °F 42.8 °F 87% 30.24 in 6.2 mi SSE 9.2 mph - N/A   Partly Cloudy
7:00 PM 44.6 °F 40.7 °F 42.8 °F 93% 30.21 in 6.2 mi SSE 6.9 mph - N/A   Partly Cloudy
7:30 PM 44.6 °F 40.2 °F 42.8 °F 93% 30.21 in 6.2 mi SSE 8.1 mph - N/A   Partly Cloudy
8:00 PM 42.8 °F 38.6 °F 41.0 °F 93% 30.21 in 6.2 mi SE 6.9 mph - N/A   Partly Cloudy
8:30 PM 44.6 °F 40.7 °F 42.8 °F 93% 30.21 in 6.2 mi ESE 6.9 mph - N/A   Scattered Clouds
9:00 PM 42.8 °F 38.0 °F 41.0 °F 93% 30.18 in 6.2 mi SE 8.1 mph - N/A   Mostly Cloudy
9:30 PM 44.6 °F 39.2 °F 42.8 °F 93% 30.18 in 6.2 mi SE 10.4 mph - N/A   Mostly Cloudy
10:00 PM 46.4 °F 41.5 °F 42.8 °F 87% 30.15 in 6.2 mi SSE 10.4 mph - N/A   Mostly Cloudy
10:30 PM 46.4 °F 41.1 °F 42.8 °F 87% 30.15 in 6.2 mi SSE 11.5 mph - N/A   Mostly Cloudy
11:00 PM 46.4 °F 40.4 °F 41.0 °F 81% 30.15 in 6.2 mi South 13.8 mph - N/A   Mostly Cloudy
11:30 PM 48.2 °F - 41.0 °F 76% 30.12 in 6.2 mi SSE 13.8 mph - N/A   Mostly Cloudy